This is the latest recevied weather packets stored in our database for station/object IZ5RIE-13. If no packets are shown the sender has not sent any weather packets the latest 10 day(s).
| Time | Temp. | Humidity | Pressure | Rain* | Wind** | Luminosity | Snow |
|---|---|---|---|---|---|---|---|
| 1788248681 | 26.67° C | 100% | 1019.2 hPa | - | - | - | - |
| 1788248647 | 26.67° C | 100% | 1019.2 hPa | - | - | - | - |
| 1788248618 | 26.67° C | 100% | 1019.2 hPa | - | - | - | - |
| 1788248584 | 26.67° C | 100% | 1019.2 hPa | - | - | - | - |
| 1788248554 | 26.67° C | 100% | 1019.1 hPa | - | - | - | - |
| 1788248524 | 26.67° C | 100% | 1019.2 hPa | - | - | - | - |
| 1788247623 | 25.56° C | 100% | 1018.9 hPa | - | - | - | - |
| 1788247599 | 25.56° C | 100% | 1019 hPa | - | - | - | - |
| 1788246699 | 26.11° C | 100% | 1018.9 hPa | - | - | - | - |
| 1788246670 | 26.11° C | 100% | 1019 hPa | - | - | - | - |
| 1788246635 | 26.11° C | 100% | 1018.9 hPa | - | - | - | - |
| 1788246608 | 26.11° C | 100% | 1018.9 hPa | - | - | - | - |
| 1788246574 | 26.11° C | 100% | 1018.9 hPa | - | - | - | - |
| 1788246546 | 26.11° C | 100% | 1018.9 hPa | - | - | - | - |
| 1788246514 | 26.11° C | 100% | 1019 hPa | - | - | - | - |
| 1788246482 | 26.11° C | 100% | 1018.9 hPa | - | - | - | - |
| 1788246449 | 26.11° C | 100% | 1019 hPa | - | - | - | - |
| 1788245549 | 26.67° C | 100% | 1018.7 hPa | - | - | - | - |
| 1788245518 | 26.67° C | 100% | 1018.8 hPa | - | - | - | - |
| 1788245486 | 26.67° C | 100% | 1018.7 hPa | - | - | - | - |
| 1788245428 | 26.67° C | 100% | 1018.7 hPa | - | - | - | - |
| 1788244527 | 28.33° C | 100% | 1018.7 hPa | - | - | - | - |
| 1788244500 | 28.33° C | 100% | 1018.7 hPa | - | - | - | - |
| 1788243600 | 30° C | 100% | 1018.7 hPa | - | - | - | - |
| 1788243572 | 30° C | 100% | 1018.6 hPa | - | - | - | - |
* Rain since midnight (hover to see other rain measurements)
** Current wind speed in m/s (hover to see current wind gust speed)